Location: Beadle
(51.4667°N, 109.0000°W)
Time: 09:18:43
(UTC+00:00)

deb Explorer IX - Pass Details

Date: 05 June 2022
Orbit: 535 x 1068 km, 38.8° (Epoch: 04 July)

Event Time Altitude Azimuth Distance (km) Brightness Sun altitude
Rises 13:56:00 0° 207° (SSW) 3,711 ? 23.8°
Reaches altitude 10° 13:59:45 10° 187° (S) 2,830 ? 24.4°
Maximum altitude 14:03:43 16° 152° (SSE) 2,450 ? 25.0°
Drops below altitude 10° 14:07:46 10° 117° (ESE) 2,897 ? 25.6°
Sets 14:11:39 0° 97° (E) 3,843 ? 26.2°
